Location: Newark
(40.2000°N, 15.6833°E)
Time: 00:39:24
(UTC+00:00)

Hubble Space Telescope - Visible Passes

Search period start: 16 December 2019 00:00
Search period end: 26 December 2019 00:00
Orbit: 536 x 540 km, 28.5° (Epoch: 14 December)

Date Brightness Start Highest point End Pass type
(mag) Time Alt. Az. Time Alt. Az. Time Alt. Az.
16 Dec 3.3 04:56:32 10° SSW 04:58:53 15° S 05:01:15 10° SE visible
17 Dec 3.2 04:45:41 10° SSW 04:48:10 16° S 04:50:39 10° SE visible
18 Dec 3.1 04:34:57 10° SW 04:37:27 16° S 04:40:00 10° SE visible
19 Dec 3.0 04:25:04 13° SSW 04:26:43 16° S 04:29:18 10° SE visible
20 Dec 3.0 04:15:09 15° SSW 04:16:00 16° S 04:18:32 10° SE visible
21 Dec 3.0 04:05:12 15° S 04:05:17 15° S 04:07:42 10° SSE visible
22 Dec 3.2 03:55:14 14° S 03:55:14 14° S 03:56:48 10° SSE visible
23 Dec 3.5 03:45:15 11° S 03:45:15 11° S 03:45:48 10° SSE visible
